CW5842 Weather Reports


time (UTC)temp
C
wind
direction
speed
KPH
gust
KPH
rain 1hr
cm
rain 24hr
cm
rain mn
cm
humidity
%
barometer
mb
20260906224024 36 103 12.9 20.9 0.00 0.00 0.00 39 1011.2
20260906223524 36 96 6.4 20.9 0.00 0.00 0.00 38 1011.2
20260906223045 36 49 11.3 20.9 0.00 0.00 0.00 38 1011.1
20260906222524 36 86 8.0 25.7 0.00 0.00 0.00 37 1011.2
20260906222024 37 101 9.7 25.7 0.00 0.00 0.00 37 1011.1
20260906221545 37 54 14.5 22.5 0.00 0.00 0.00 37 1011.3
20260906221025 37 105 12.9 19.3 0.00 0.00 0.00 36 1011.3
20260906220524 37 85 3.2 12.9 0.00 0.00 0.00 36 1011.2
20260906220047 37 14 6.4 19.3 0.00 0.00 0.00 35 1011.3
20260906215524 37 94 6.4 19.3 0.00 0.00 0.00 35 1011.4
20260906215025 37 98 8.0 16.1 0.00 0.00 0.00 36 1011.4
20260906214549 37 55 4.8 20.9 0.00 0.00 0.00 36 1011.4
20260906214025 37 63 9.7 20.9 0.00 0.00 0.00 37 1011.4
20260906213525 37 102 3.2 17.7 0.00 0.00 0.00 37 1011.5
20260906213046 36 118 4.8 14.5 0.00 0.00 0.00 36 1011.5
20260906212524 36 53 8.0 16.1 0.00 0.00 0.00 36 1011.6
20260906212026 36 80 9.7 17.7 0.00 0.00 0.00 36 1011.7
20260906211548 36 38 6.4 19.3 0.00 0.00 0.00 36 1011.7
20260906211024 36 115 6.4 20.9 0.00 0.00 0.00 38 1011.8
20260906210525 36 92 12.9 20.9 0.00 0.00 0.00 37 1012.0
20260906205525 36 185 4.8 20.9 0.00 0.00 0.00 37 1012.1
20260906205024 36 80 11.3 20.9 0.00 0.00 0.00 36 1012.2
20260906204544 37 119 8.0 22.5 0.00 0.00 0.00 36 1012.3
20260906204025 37 90 4.8 22.5 0.00 0.00 0.00 36 1012.2
20260906203525 37 77 4.8 17.7 0.00 0.00 0.00 37 1012.2
20260906203049 36 156 3.2 27.4 0.00 0.00 0.00 37 1012.3
20260906202527 36 78 8.0 27.4 0.00 0.00 0.00 37 1012.3
20260906202025 36 95 9.7 27.4 0.00 0.00 0.00 37 1012.3
20260906201610 36 23 8.0 19.3 0.00 0.00 0.00 37 1012.4
20260906201025 36 51 12.9 20.9 0.00 0.00 0.00 37 1012.5
20260906200525 36 123 6.4 20.9 0.00 0.00 0.00 39 1012.8
20260906200044 36 113 8.0 20.9 0.00 0.00 0.00 38 1012.8
20260906195525 36 55 6.4 20.9 0.00 0.00 0.00 39 1012.8
20260906195024 36 51 12.9 22.5 0.00 0.00 0.00 39 1012.9
20260906194546 36 130 9.7 22.5 0.00 0.00 0.00 39 1013.0
20260906194022 36 86 1.6 17.7 0.00 0.00 0.00 38 1012.9
20260906193525 36 88 11.3 19.3 0.00 0.00 0.00 38 1013.0
20260906193046 36 88 4.8 19.3 0.00 0.00 0.00 39 1013.1
20260906192525 36 46 4.8 19.3 0.00 0.00 0.00 40 1013.1
20260906192025 36 113 4.8 22.5 0.00 0.00 0.00 40 1013.2
20260906191559 36 173 8.0 22.5 0.00 0.00 0.00 40 1013.3
20260906191025 36 121 4.8 20.9 0.00 0.00 0.00 40 1013.3
20260906190525 36 202 3.2 22.5 0.00 0.00 0.00 41 1013.3
20260906190043 36 105 11.3 22.5 0.00 0.00 0.00 41 1013.4
20260906185526 36 0 4.8 19.3 0.00 0.00 0.00 42 1013.4
20260906185023 35 74 4.8 19.3 0.00 0.00 0.00 42 1013.5
20260906184550 35 64 9.7 19.3 0.00 0.00 0.00 41 1013.5
20260906184026 35 108 6.4 16.1 0.00 0.00 0.00 43 1013.5
20260906183525 35 75 6.4 16.1 0.00 0.00 0.00 43 1013.6
20260906183046 35 82 8.0 16.1 0.00 0.00 0.00 44 1013.7
20260906182530 35 80 9.7 16.1 0.00 0.00 0.00 43 1013.7
20260906182026 35 103 4.8 20.9 0.00 0.00 0.00 44 1013.8
20260906181559 35 93 9.7 20.9 0.00 0.00 0.00 44 1013.9
20260906181027 34 136 1.6 14.5 0.00 0.00 0.00 46 1013.9
20260906180526 34 11 1.6 17.7 0.00 0.00 0.00 47 1014.0
20260906180049 34 79 8.0 17.7 0.00 0.00 0.00 46 1014.2
20260906175525 34 56 6.4 24.1 0.00 0.00 0.00 46 1014.2
20260906175029 34 98 8.0 24.1 0.00 0.00 0.00 46 1014.2
20260906174546 35 92 8.0 16.1 0.00 0.00 0.00 45 1014.3
20260906174102 35 203 3.2 17.7 0.00 0.00 0.00 45 1014.3
20260906173525 34 323 4.8 19.3 0.00 0.00 0.00 46 1014.4
20260906173044 35 176 9.7 19.3 0.00 0.00 0.00 45 1014.5
20260906172525 34 87 11.3 19.3 0.00 0.00 0.00 46 1014.5
20260906172024 34 85 8.0 19.3 0.00 0.00 0.00 48 1014.6
20260906171544 34 63 11.3 19.3 0.00 0.00 0.00 48 1014.8
20260906171025 34 79 9.7 19.3 0.00 0.00 0.00 47 1014.9
20260906170524 33 196 4.8 14.5 0.00 0.00 0.00 49 1014.9
20260906170043 33 105 1.6 20.9 0.00 0.00 0.00 49 1015.1
20260906165522 33 126 9.7 20.9 0.00 0.00 0.00 48 1015.2
20260906165025 33 77 3.2 14.5 0.00 0.00 0.00 50 1015.2
20260906164549 33 71 6.4 20.9 0.00 0.00 0.00 48 1015.2
20260906164026 33 138 9.7 20.9 0.00 0.00 0.00 49 1015.3
20260906163525 33 103 8.0 20.9 0.00 0.00 0.00 48 1015.3
20260906163055 33 135 6.4 20.9 0.00 0.00 0.00 49 1015.3
20260906162524 33 5 4.8 20.9 0.00 0.00 0.00 51 1015.4
20260906162026 33 96 9.7 17.7 0.00 0.00 0.00 51 1015.4
20260906161544 33 57 4.8 14.5 0.00 0.00 0.00 53 1015.3
20260906161024 33 0 1.6 12.9 0.00 0.00 0.00 53 1015.2
20260906160521 32 360 3.2 11.3 0.00 0.00 0.00 54 1015.2
20260906160048 32 47 1.6 12.9 0.00 0.00 0.00 55 1015.1
20260906155523 32 103 8.0 12.9 0.00 0.00 0.00 55 1015.1
20260906155024 32 57 3.2 11.3 0.00 0.00 0.00 56 1015.2
20260906154547 32 11 1.6 9.7 0.00 0.00 0.00 58 1015.1
20260906154025 31 215 3.2 12.9 0.00 0.00 0.00 58 1015.1
20260906153527 31 236 1.6 12.9 0.00 0.00 0.00 59 1015.0
20260906153045 31 86 4.8 12.9 0.00 0.00 0.00 58 1015.1
20260906152528 31 136 0.0 8.0 0.00 0.00 0.00 60 1015.0
20260906152024 31 234 1.6 4.8 0.00 0.00 0.00 60 1015.0
20260906151543 31 5 0.0 4.8 0.00 0.00 0.00 61 1015.0
20260906151025 30 141 1.6 8.0 0.00 0.00 0.00 63 1015.0
20260906150521 30 221 3.2 8.0 0.00 0.00 0.00 63 1015.0
20260906150048 30 131 3.2 6.4 0.00 0.00 0.00 64 1015.1
20260906145526 30 0 3.2 9.7 0.00 0.00 0.00 64 1015.1
20260906145024 29 117 1.6 9.7 0.00 0.00 0.00 66 1015.0
20260906144544 29 86 3.2 9.7 0.00 0.00 0.00 67 1015.1
20260906144026 28 69 1.6 11.3 0.00 0.00 0.00 68 1015.1
20260906143525 28 90 4.8 11.3 0.00 0.00 0.00 68 1015.1
20260906143049 28 109 4.8 11.3 0.00 0.00 0.00 68 1015.2
20260906142525 28 55 4.8 11.3 0.00 0.00 0.00 70 1015.2
20260906142026 28 130 3.2 6.4 0.00 0.00 0.00 70 1015.3
20260906141542 27 88 3.2 6.4 0.00 0.00 0.00 71 1015.3
20260906141029 27 101 3.2 6.4 0.00 0.00 0.00 71 1015.3
20260906140525 27 92 1.6 6.4 0.00 0.00 0.00 72 1015.1
20260906140059 27 117 3.2 6.4 0.00 0.00 0.00 73 1015.2
20260906135525 26 159 1.6 9.7 0.00 0.00 0.00 74 1015.2
20260906135027 26 95 3.2 9.7 0.00 0.00 0.00 74 1015.2
20260906134549 26 109 4.8 9.7 0.00 0.00 0.00 74 1015.1
20260906134026 26 109 3.2 9.7 0.00 0.00 0.00 75 1015.0
20260906133527 26 83 3.2 6.4 0.00 0.00 0.00 75 1015.0
20260906133045 25 69 1.6 4.8 0.00 0.00 0.00 75 1015.1
20260906132522 25 90 1.6 4.8 0.00 0.00 0.00 76 1015.1
20260906132024 25 88 1.6 4.8 0.00 0.00 0.00 76 1015.0
20260906131543 25 0 0.0 0.0 0.00 0.00 0.00 76 1014.9
20260906131028 25 0 0.0 0.0 0.00 0.00 0.00 76 1015.0
20260906130525 25 0 0.0 0.0 0.00 0.00 0.00 77 1014.8
20260906130050 25 0 0.0 0.0 0.00 0.00 0.00 77 1014.7
20260906125525 24 0 0.0 0.0 0.00 0.00 0.00 78 1014.7
20260906125024 23 0 0.0 0.0 0.00 0.00 0.00 78 1014.6
20260906124552 23 0 0.0 0.0 0.00 0.00 0.00 78 1014.6
20260906124023 23 0 0.0 0.0 0.00 0.00 0.00 79 1014.5
20260906123524 23 0 0.0 0.0 0.00 0.00 0.00 79 1014.5
20260906123045 23 0 0.0 0.0 0.00 0.00 0.00 78 1014.5
20260906122526 23 0 0.0 0.0 0.00 0.00 0.00 78 1014.4
20260906122028 23 0 0.0 0.0 0.00 0.00 0.00 78 1014.3
20260906121553 23 0 0.0 0.0 0.00 0.00 0.00 78 1014.3
20260906121024 23 0 0.0 0.0 0.00 0.00 0.00 78 1014.4
20260906120525 23 0 0.0 0.0 0.00 0.00 0.00 78 1014.2
20260906120055 23 0 0.0 0.0 0.00 0.00 0.00 78 1014.2
20260906115527 23 0 0.0 0.0 0.00 0.00 0.00 78 1014.2
20260906115024 23 0 0.0 0.0 0.00 0.00 0.00 78 1014.1
20260906114559 23 0 0.0 0.0 0.00 0.00 0.00 78 1014.0
20260906114022 23 0 0.0 0.0 0.00 0.00 0.00 78 1014.0
20260906113527 23 0 0.0 0.0 0.00 0.00 0.00 78 1013.9
20260906113059 23 0 0.0 0.0 0.00 0.00 0.00 78 1013.9
20260906112524 23 0 0.0 0.0 0.00 0.00 0.00 77 1013.9
20260906112025 23 0 0.0 0.0 0.00 0.00 0.00 77 1013.9
20260906111545 23 0 0.0 0.0 0.00 0.00 0.00 77 1013.9
20260906111025 23 0 0.0 0.0 0.00 0.00 0.00 77 1013.9
20260906110526 23 0 0.0 0.0 0.00 0.00 0.00 77 1013.8
20260906110046 23 0 0.0 0.0 0.00 0.00 0.00 77 1013.8
20260906105525 23 0 0.0 0.0 0.00 0.00 0.00 77 1013.7
20260906105024 23 0 0.0 0.0 0.00 0.00 0.00 77 1013.7
20260906104543 23 0 0.0 0.0 0.00 0.00 0.00 77 1013.7
20260906104022 23 0 0.0 0.0 0.00 0.00 0.00 77 1013.7
20260906103522 23 0 0.0 0.0 0.00 0.00 0.00 77 1013.6
20260906103045 23 0 0.0 0.0 0.00 0.00 0.00 77 1013.6
20260906102525 23 0 0.0 0.0 0.00 0.00 0.00 77 1013.6
20260906102027 23 0 0.0 0.0 0.00 0.00 0.00 77 1013.6
20260906101544 23 0 0.0 0.0 0.00 0.00 0.00 76 1013.6
20260906101028 23 0 0.0 0.0 0.00 0.00 0.00 76 1013.6
20260906100524 23 0 0.0 0.0 0.00 0.00 0.00 75 1013.5
20260906100045 23 0 0.0 0.0 0.00 0.00 0.00 75 1013.4
20260906095520 24 0 0.0 0.0 0.00 0.00 0.00 76 1013.4
20260906095024 24 0 0.0 0.0 0.00 0.00 0.00 76 1013.3
20260906094548 24 0 0.0 0.0 0.00 0.00 0.00 76 1013.3
20260906094023 24 0 0.0 0.0 0.00 0.00 0.00 76 1013.1
20260906093525 24 0 0.0 0.0 0.00 0.00 0.00 75 1013.1
20260906093045 24 0 0.0 0.0 0.00 0.00 0.00 75 1013.1
20260906092524 24 0 0.0 0.0 0.00 0.00 0.00 75 1013.0
20260906092026 25 0 0.0 0.0 0.00 0.00 0.00 74 1013.0
20260906091547 25 0 0.0 0.0 0.00 0.00 0.00 74 1013.0
20260906091023 25 0 0.0 0.0 0.00 0.00 0.00 74 1012.9
20260906090523 25 0 0.0 0.0 0.00 0.00 0.00 74 1013.0
20260906090048 25 0 0.0 0.0 0.00 0.00 0.00 73 1013.0
20260906085525 25 0 0.0 0.0 0.00 0.00 0.00 73 1013.0
20260906085024 25 0 0.0 0.0 0.00 0.00 0.00 73 1013.0
20260906084546 25 0 0.0 0.0 0.00 0.00 0.00 73 1013.1
20260906084023 25 0 0.0 0.0 0.00 0.00 0.00 73 1013.1
20260906083521 25 0 0.0 0.0 0.00 0.00 0.00 74 1013.2
20260906083045 25 0 0.0 0.0 0.00 0.00 0.00 73 1013.1
20260906082524 25 0 0.0 0.0 0.00 0.00 0.00 73 1013.1
20260906082021 25 0 0.0 0.0 0.00 0.00 0.00 73 1013.2
20260906081547 25 0 0.0 0.0 0.00 0.00 0.00 73 1013.2
20260906081025 25 0 0.0 0.0 0.00 0.00 0.00 72 1013.2
20260906080525 25 0 0.0 0.0 0.00 0.00 0.00 72 1013.3
20260906080044 25 0 0.0 0.0 0.00 0.00 0.00 71 1013.3
20260906075524 25 0 0.0 0.0 0.00 0.00 0.00 71 1013.3
20260906075023 26 0 0.0 0.0 0.00 0.00 0.00 71 1013.1
20260906074545 26 0 0.0 0.0 0.00 0.00 0.00 71 1013.2
20260906074024 26 0 0.0 0.0 0.00 0.00 0.00 70 1013.2
20260906073525 26 0 0.0 0.0 0.00 0.00 0.00 70 1013.2
20260906073047 26 0 0.0 0.0 0.00 0.00 0.00 69 1013.3
20260906072524 26 0 0.0 0.0 0.00 0.00 0.00 70 1013.3
20260906072025 26 0 0.0 0.0 0.00 0.00 0.00 70 1013.4
20260906071544 26 0 0.0 0.0 0.00 0.00 0.00 70 1013.5
20260906071025 26 0 0.0 0.0 0.00 0.00 0.00 69 1013.5
20260906070527 26 0 0.0 0.0 0.00 0.00 0.00 69 1013.6
20260906070044 26 0 0.0 0.0 0.00 0.00 0.00 69 1013.7
20260906065525 26 0 0.0 0.0 0.00 0.00 0.00 68 1013.7
20260906065019 26 0 0.0 0.0 0.00 0.00 0.00 68 1013.8
20260906064545 27 0 0.0 0.0 0.00 0.00 0.00 68 1013.7
20260906064024 27 0 0.0 0.0 0.00 0.00 0.00 68 1013.7
20260906063521 27 0 0.0 0.0 0.00 0.00 0.00 68 1013.7
20260906063045 27 0 0.0 0.0 0.00 0.00 0.00 68 1013.9
20260906062526 27 0 0.0 0.0 0.00 0.00 0.00 67 1013.9
20260906062024 27 0 0.0 0.0 0.00 0.00 0.00 67 1014.0
20260906061546 27 0 0.0 3.2 0.00 0.00 0.00 67 1014.0
20260906061023 27 0 0.0 3.2 0.00 0.00 0.00 66 1014.0
20260906060524 27 0 0.0 0.0 0.00 0.00 0.00 67 1014.0
20260906055524 27 0 0.0 0.0 0.00 0.00 0.00 66 1014.0
20260906055024 27 0 0.0 0.0 0.00 0.00 0.00 66 1014.0
20260906054546 27 0 0.0 3.2 0.00 0.00 0.00 66 1014.1
20260906054024 27 0 0.0 3.2 0.00 0.00 0.00 66 1014.0
20260906053525 27 0 0.0 0.0 0.00 0.00 0.00 65 1014.1
20260906053045 27 0 0.0 0.0 0.00 0.00 0.00 64 1014.0
20260906052531 28 0 0.0 0.0 0.00 0.00 0.00 64 1014.0
20260906052024 28 0 0.0 0.0 0.00 0.00 0.00 63 1013.9
20260906051545 28 0 0.0 0.0 0.00 0.00 0.00 64 1013.8
20260906051024 28 0 0.0 0.0 0.00 0.00 0.00 64 1013.8
20260906050617 28 0 0.0 0.0 0.00 0.00 0.00 63 1013.8
20260906050053 28 0 0.0 0.0 0.00 0.00 0.00 63 1013.8
20260906045524 28 0 0.0 0.0 0.00 0.00 0.00 63 1013.8
20260906045024 28 0 0.0 0.0 0.00 0.00 0.00 62 1013.9
20260906044546 28 0 0.0 0.0 0.00 0.00 0.00 62 1013.9
20260906044025 28 0 0.0 0.0 0.00 0.00 0.00 61 1013.8
20260906043524 28 0 0.0 0.0 0.00 0.00 0.00 61 1013.8
20260906043044 29 0 0.0 1.6 0.00 0.00 0.00 61 1013.8
20260906042525 29 0 0.0 3.2 0.00 0.00 0.00 60 1013.8
20260906042025 29 0 0.0 3.2 0.00 0.00 0.00 60 1013.8
20260906041546 29 144 0.0 4.8 0.00 0.00 0.00 60 1013.7
20260906041025 29 0 0.0 6.4 0.00 0.00 0.00 60 1013.8
20260906040521 30 153 0.0 6.4 0.00 0.00 0.00 60 1013.8
20260906040044 30 140 0.0 9.7 0.00 0.00 0.00 59 1013.7
20260906035533 30 163 1.6 9.7 0.00 0.00 0.00 59 1013.8
20260906035024 30 123 3.2 9.7 0.00 0.00 0.00 59 1014.0
20260906034555 30 0 0.0 6.4 0.00 0.00 0.00 58 1014.0
20260906034024 30 129 3.2 6.4 0.00 0.00 0.00 58 1014.0
20260906033524 30 136 0.0 6.4 0.00 0.00 0.00 57 1014.0
20260906033045 30 0 1.6 6.4 0.00 0.00 0.00 57 1013.9
20260906032523 30 103 1.6 6.4 0.00 0.00 0.00 56 1013.9
20260906032026 30 105 3.2 6.4 0.00 0.00 0.00 56 1013.8
20260906031606 30 103 1.6 9.7 0.00 0.00 0.00 55 1013.7
20260906031023 31 128 0.0 9.7 0.00 0.00 0.00 55 1013.7
20260906030525 31 0 0.0 6.4 0.00 0.00 0.00 54 1013.6
20260906030050 31 0 0.0 3.2 0.00 0.00 0.00 53 1013.6
20260906025528 31 0 0.0 8.0 0.00 0.00 0.00 53 1013.4
20260906025024 31 0 1.6 8.0 0.00 0.00 0.00 53 1013.3
20260906024555 31 128 1.6 11.3 0.00 0.00 0.00 53 1013.2
20260906024025 31 213 1.6 17.7 0.00 0.00 0.00 52 1013.2
20260906023524 31 167 4.8 17.7 0.00 0.00 0.00 52 1013.1
20260906023101 31 0 0.0 6.4 0.00 0.00 0.00 51 1013.0
20260906022525 31 113 0.0 8.0 0.00 0.00 0.00 51 1013.0
20260906022025 32 0 1.6 14.5 0.00 0.00 0.00 51 1012.8
20260906021543 32 121 4.8 17.7 0.00 0.00 0.00 51 1012.9
20260906021025 32 122 6.4 17.7 0.00 0.00 0.00 51 1012.8
20260906020524 32 130 6.4 12.9 0.00 0.00 0.00 51 1012.7
20260906020055 32 133 4.8 12.9 0.00 0.00 0.00 51 1012.7
20260906015525 32 120 4.8 17.7 0.00 0.00 0.00 50 1012.5
20260906015021 32 129 4.8 17.7 0.00 0.00 0.00 50 1012.5
20260906014546 32 101 4.8 17.7 0.00 0.00 0.00 50 1012.4
20260906014026 32 113 4.8 14.5 0.00 0.00 0.00 50 1012.2
20260906013527 32 125 6.4 17.7 0.00 0.00 0.00 49 1012.2
20260906013045 32 124 6.4 19.3 0.00 0.00 0.00 49 1012.2
20260906012522 32 130 9.7 19.3 0.00 0.00 0.00 48 1012.1
20260906012026 32 94 8.0 22.5 0.00 0.00 0.00 47 1012.0
20260906011544 33 104 11.3 22.5 0.00 0.00 0.00 46 1011.8
20260906011024 33 98 6.4 16.1 0.00 0.00 0.00 43 1011.8
20260906010524 33 0 0.0 4.8 0.00 0.00 0.00 41 1011.5
20260906010044 33 146 0.0 4.8 0.00 0.00 0.00 41 1011.5
20260906005524 34 138 0.0 4.8 0.00 0.00 0.00 40 1011.6
20260906005025 34 0 0.0 6.4 0.00 0.00 0.00 40 1011.5
20260906004549 34 127 1.6 14.5 0.00 0.00 0.00 39 1011.5
20260906004027 34 123 3.2 14.5 0.00 0.00 0.00 39 1011.5
20260906003526 35 144 4.8 14.5 0.00 0.00 0.00 39 1011.6
20260906003049 35 126 0.0 9.7 0.00 0.00 0.00 38 1011.5
20260906002524 35 118 3.2 9.7 0.00 0.00 0.00 38 1011.4
20260906002024 35 129 3.2 9.7 0.00 0.00 0.00 37 1011.4
20260906001546 35 123 3.2 17.7 0.00 0.00 0.00 37 1011.4
20260906001025 35 109 8.0 17.7 0.00 0.00 0.00 37 1011.3
20260906000525 35 127 1.6 16.1 0.00 0.00 0.00 37 1011.3
20260906000047 35 146 3.2 16.1 0.00 0.00 0.00 36 1011.3
20260905235525 35 111 4.8 16.1 0.00 0.00 0.00 36 1011.2
20260905235028 36 118 4.8 12.9 0.00 0.00 0.00 36 1011.3
20260905234547 36 175 1.6 16.1 0.00 0.00 0.00 36 1011.3
20260905234025 36 126 6.4 16.1 0.00 0.00 0.00 36 1011.2
20260905233524 36 91 6.4 17.7 0.00 0.00 0.00 35 1011.2
20260905233049 36 162 6.4 17.7 0.00 0.00 0.00 35 1011.1
20260905232525 36 103 3.2 17.7 0.00 0.00 0.00 35 1011.1
20260905232025 36 89 8.0 17.7 0.00 0.00 0.00 35 1011.1
20260905231548 36 48 4.8 14.5 0.00 0.00 0.00 35 1011.2
20260905231028 36 76 1.6 14.5 0.00 0.00 0.00 35 1011.3
20260905230523 36 105 4.8 14.5 0.00 0.00 0.00 35 1011.3
20260905230045 36 80 6.4 17.7 0.00 0.00 0.00 35 1011.3
20260905225524 36 129 8.0 19.3 0.00 0.00 0.00 35 1011.3
20260905225024 36 46 11.3 20.9 0.00 0.00 0.00 36 1011.2
20260905224547 36 90 8.0 20.9 0.00 0.00 0.00 36 1011.2